HOECHSTEN Weather Reports


time (UTC)temp
C
wind
direction
speed
KPH
gust
KPH
rain 1hr
cm
rain 24hr
cm
rain mn
cm
humidity
%
barometer
mb
20260507010211 6 238 20.9 0.0 0.00 0.00 0.00 59 1008.8
20260507003209 6 202 22.5 0.0 0.00 0.00 0.00 59 1008.5
20260507000209 6 202 25.7 0.0 0.00 0.00 0.00 60 1008.4
20260506233209 6 199 16.1 0.0 0.00 0.00 0.00 60 1008.2
20260506230209 6 225 19.3 0.0 0.00 0.00 0.00 60 1008.3
20260506223209 6 200 16.1 0.0 0.00 0.00 0.00 60 1008.2
20260506213209 6 248 20.9 0.0 0.00 0.00 0.71 59 1008.0
20260506210210 7 198 20.9 0.0 0.00 0.00 0.71 60 1008.0
20260506203210 7 211 16.1 0.0 0.00 0.00 0.71 60 1007.7
20260506200210 7 196 20.9 0.0 0.00 0.00 0.71 60 1007.4
20260506193215 7 200 19.3 0.0 0.00 0.00 0.71 60 1007.1
20260506190211 7 258 24.1 0.0 0.00 0.00 0.71 60 1006.9
20260506183209 7 204 29.0 0.0 0.00 0.00 0.71 60 1006.3
20260506180216 7 244 27.4 0.0 0.00 0.00 0.71 61 1006.2
20260506173210 7 209 19.3 0.0 0.00 0.00 0.71 61 1005.8
20260506170215 7 243 25.7 0.0 0.00 0.00 0.71 61 1005.4
20260506163210 7 222 27.4 0.0 0.00 0.00 0.71 62 1005.1
20260506160210 7 188 37.0 0.0 0.00 0.00 0.71 63 1004.8
20260506153210 7 0 33.8 0.0 0.00 0.00 0.71 64 1004.7
20260506150210 7 190 38.6 0.0 0.00 0.00 0.69 66 1004.8
20260506143210 7 216 49.9 0.0 0.00 0.00 0.23 69 1004.3
20260506140210 9 253 40.2 0.0 0.00 0.00 0.05 75 1003.8
20260506133211 12 157 17.7 0.0 0.00 0.00 0.00 76 1003.3
20260506130211 12 205 14.5 0.0 0.00 0.00 0.00 76 1003.2
20260506123210 12 227 14.5 0.0 0.00 0.00 0.00 76 1003.0
20260506120210 12 221 11.3 0.0 0.00 0.00 0.00 76 1002.8
20260506113217 13 197 6.4 0.0 0.00 0.00 0.00 75 1002.7
20260506110210 13 230 4.8 0.0 0.00 0.00 0.00 76 1003.0
20260506100213 12 18 3.2 0.0 0.00 0.00 0.00 76 1003.3
20260506093211 11 34 12.9 0.0 0.00 0.00 0.00 76 1003.2
20260506090211 11 56 8.0 0.0 0.00 0.00 0.00 76 1003.5
20260506083211 12 232 8.0 0.0 0.00 0.00 0.00 75 1003.5
20260506080212 11 334 4.8 0.0 0.00 0.00 0.00 75 1003.3
20260506073211 11 235 4.8 0.0 0.00 0.00 0.00 75 1003.4
20260506070212 10 244 6.4 0.0 0.00 0.00 0.00 75 1003.4
20260506060210 10 213 11.3 0.0 0.00 0.00 0.00 74 1003.3
20260506050211 9 233 6.4 0.0 0.00 0.00 0.00 72 1003.6
20260506043211 8 227 11.3 0.0 0.00 0.00 0.00 71 1003.7
20260506040211 8 242 6.4 0.0 0.00 0.00 0.00 69 1004.1
20260506033211 8 248 4.8 0.0 0.00 0.00 0.00 69 1004.4
20260506030212 8 214 12.9 0.0 0.00 0.00 0.00 70 1004.8
20260506023211 8 194 11.3 0.0 0.00 0.00 0.00 72 1004.7
20260506020212 9 217 17.7 0.0 0.00 0.00 0.00 72 1004.9
20260506013211 9 221 16.1 0.0 0.00 0.00 0.00 70 1005.1